Little Rock AFB, AR

4:34 PM CDT on April 25, 2017 (GMT -0500)
Little Rock Air Force Base

Weather History for KLRF - April, 2013

Change the Weather History Date:

Sunday, April 14, 2013

  Actual Average Record
Temperature  
Mean Temperature 60 °F -  
Max Temperature 73 °F 72 °F 87 °F (1998)
Min Temperature 48 °F 51 °F 33 °F (1980)
Degree Days  
Heating Degree Days 4    
Growing Degree Days 10 (Base 50)    
Moisture  
Dew Point 55 °F    
Average Humidity 77    
Maximum Humidity 96    
Minimum Humidity 59    
Precipitation  
Precipitation 0.00 in - - ()
Sea Level Pressure  
Sea Level Pressure 29.77 in    
Wind  
Wind Speed 5 mph (ESE)    
Max Wind Speed 14 mph    
Max Gust Speed 22 mph    
Visibility 10 miles    
Events Rain    
Averages and records for this station are not official NWS values.
T = Trace of Precipitation, MM = Missing Value Source: NWS Daily Summary

Daily Weather History Graph

Daily Weather History Graph

Search for Another Location

Airport or City:

Trip Planner

Search our weather history database for the weather conditions in past years. The results will help you decide how hot, cold, wet, or windy it might be!

Date:

Astronomy

Apr. 14, 2013 Rise Set
Actual Time 6:37 AM CDT 7:40 PM CDT
Civil Twilight 6:11 AM CDT 8:06 PM CDT
Nautical Twilight 5:40 AM CDT 8:37 PM CDT
Astronomical Twilight 5:08 AM CDT 9:09 PM CDT
Moon 9:21 AM CDT (4/14) 11:47 PM CDT (4/14)
Length of Visible Light 13h 54m
Length of Day
13h 02m
Waxing Crescent, 17% of the Moon is Illuminated
Apr 14
Waxing Crescent
Apr 18
First Quarter
Apr 25
Full
May 2
Last Quarter
May 9
New

Hourly Weather History & Observations

Time (CDT) Temp. Dew Point Humidity Pressure Visibility Wind Dir Wind Speed Gust Speed Precip Events Conditions
12:58 AM 51.6 °F 50.2 °F 95% 29.89 in 10.0 mi ENE 2.3 mph - N/A   Clear
1:58 AM 51.1 °F 49.1 °F 93% 29.87 in 10.0 mi Calm Calm - N/A   Clear
2:58 AM 50.5 °F 48.6 °F 93% 29.83 in 10.0 mi Calm Calm - N/A   Clear
3:58 AM 48.4 °F 46.9 °F 95% 29.84 in 10.0 mi Calm Calm - N/A   Scattered Clouds
4:58 AM 49.5 °F 47.7 °F 94% 29.83 in 10.0 mi NNE 2.3 mph - N/A   Mostly Cloudy
5:58 AM 50.2 °F 48.7 °F 95% 29.83 in 10.0 mi ESE 1.2 mph - N/A   Partly Cloudy
6:58 AM 49.1 °F 48.0 °F 96% 29.82 in 10.0 mi ENE 2.3 mph - N/A   Partly Cloudy
7:58 AM 52.5 °F 51.4 °F 96% 29.81 in 10.0 mi East 2.3 mph - N/A   Partly Cloudy
8:58 AM 60.8 °F 52.9 °F 75% 29.79 in 10.0 mi ESE 4.6 mph - N/A   Mostly Cloudy
9:58 AM 63.0 °F 52.5 °F 69% 29.78 in 10.0 mi SE 8.1 mph - N/A   Scattered Clouds
10:58 AM 66.6 °F 54.3 °F 65% 29.79 in 10.0 mi Variable 5.8 mph - N/A   Scattered Clouds
11:58 AM 67.6 °F 54.9 °F 64% 29.79 in 10.0 mi ESE 12.7 mph 16.1 mph N/A   Overcast
12:58 PM 69.4 °F 56.5 °F 63% 29.77 in 10.0 mi ESE 9.2 mph - N/A   Mostly Cloudy
1:58 PM 70.2 °F 58.3 °F 66% 29.73 in 10.0 mi East 12.7 mph - N/A   Mostly Cloudy
2:21 PM 71.6 °F 59.0 °F 64% 29.71 in 10.0 mi SE 6.9 mph - N/A Rain Light Rain
2:30 PM 71.6 °F 59.0 °F 64% 29.71 in 10.0 mi ESE 9.2 mph 17.3 mph N/A   Mostly Cloudy
2:58 PM 72.0 °F 59.4 °F 64% 29.71 in 10.0 mi SE 11.5 mph 17.3 mph 0.00 in   Mostly Cloudy
3:58 PM 72.7 °F 60.3 °F 65% 29.70 in 10.0 mi SSE 13.8 mph 21.9 mph N/A   Mostly Cloudy
4:58 PM 73.4 °F 58.3 °F 59% 29.68 in 10.0 mi SSE 12.7 mph 18.4 mph N/A   Partly Cloudy
5:58 PM 72.9 °F 59.5 °F 63% 29.67 in 10.0 mi ESE 11.5 mph - N/A   Clear
6:58 PM 71.6 °F 59.4 °F 65% 29.68 in 10.0 mi ESE 10.4 mph - N/A   Clear
7:58 PM 68.7 °F 59.0 °F 71% 29.70 in 10.0 mi ESE 5.8 mph - N/A   Clear
8:58 PM 66.4 °F 59.2 °F 78% 29.72 in 10.0 mi ESE 5.8 mph - N/A   Clear
9:58 PM 65.5 °F 59.0 °F 80% 29.75 in 10.0 mi Variable 5.8 mph - N/A   Clear
10:58 PM 62.1 °F 58.3 °F 87% 29.78 in 10.0 mi East 5.8 mph - N/A   Clear
11:58 PM 61.0 °F 57.7 °F 89% 29.78 in 10.0 mi ESE 5.8 mph - N/A   Clear